EW7704 Weather Reports


Display with metric or nautical units.
time (UTC)temp
F
wind
direction
speed
MPH
gust
MPH
rain 1hr
in
rain 24hr
in
rain mn
in
humidity
%
barometer
mb
20260831041027 65 223 0.0 2.0 0.00 0.00 0.00 72 1009.6
20260831040527 64 227 0.0 2.0 0.00 0.00 0.00 72 1009.6
20260831040028 65 236 0.0 1.0 0.00 0.00 0.00 71 1009.5
20260831035527 65 202 0.0 1.0 0.00 0.00 0.00 71 1009.4
20260831035026 65 201 0.0 1.0 0.00 0.00 0.00 70 1009.5
20260831034526 65 233 0.0 1.0 0.00 0.00 0.00 68 1009.3
20260831034026 65 235 0.0 1.0 0.00 0.00 0.00 67 1009.3
20260831033525 65 232 0.0 1.0 0.00 0.00 0.00 67 1009.2
20260831033025 65 234 0.0 1.0 0.00 0.00 0.00 67 1009.2
20260831032525 66 232 0.0 1.0 0.00 0.00 0.00 66 1009.2
20260831032025 66 227 0.0 1.0 0.00 0.00 0.00 65 1009.2
20260831031535 66 227 0.0 0.0 0.00 0.00 0.00 64 1009.2
20260831031025 66 228 0.0 0.0 0.00 0.00 0.00 63 1009.2
20260831030525 67 234 0.0 0.0 0.00 0.00 0.00 62 1009.1
20260831030026 67 215 0.0 0.0 0.00 0.00 0.00 62 1009.0
20260831025525 67 202 0.0 0.0 0.00 0.00 0.00 62 1009.0
20260831025025 67 193 0.0 1.0 0.00 0.00 0.00 62 1008.9
20260831024525 67 192 0.0 2.0 0.00 0.00 0.00 63 1008.9
20260831024025 66 190 0.0 2.0 0.00 0.00 0.00 63 1008.9
20260831023526 67 189 0.0 0.0 0.00 0.00 0.00 63 1008.8
20260831023023 67 189 0.0 1.0 0.00 0.00 0.00 62 1008.6
20260831022527 67 191 0.0 1.0 0.00 0.00 0.00 62 1008.6
20260831022023 67 194 0.0 1.0 0.00 0.00 0.00 61 1008.5
20260831021523 68 360 0.0 1.0 0.00 0.00 0.00 60 1008.5
20260831021027 69 360 0.0 2.0 0.00 0.00 0.00 58 1008.4
20260831020524 69 360 0.0 3.0 0.00 0.00 0.00 57 1008.3
20260831020023 70 360 1.0 3.0 0.00 0.00 0.00 55 1008.2
20260831015522 70 360 0.0 3.0 0.00 0.00 0.00 54 1008.2
20260831015022 70 360 2.0 3.0 0.00 0.00 0.00 54 1008.2
20260831014522 70 360 1.0 3.0 0.00 0.00 0.00 54 1008.1
20260831014024 70 360 2.0 3.0 0.00 0.00 0.00 53 1008.1
20260831013522 70 360 1.0 3.0 0.00 0.00 0.00 54 1008.1
20260831013022 71 360 0.0 5.0 0.00 0.00 0.00 53 1007.9
20260831012522 71 360 2.0 5.0 0.00 0.00 0.00 52 1007.8
20260831012025 72 360 3.0 7.0 0.00 0.00 0.00 50 1007.8
20260831011521 73 134 4.0 7.0 0.00 0.00 0.00 48 1007.8
20260831011021 73 169 1.0 7.0 0.00 0.00 0.00 47 1007.7
20260831010522 74 159 3.0 6.0 0.00 0.00 0.00 48 1007.7
20260831010121 74 184 2.0 6.0 0.00 0.00 0.00 47 1007.6
20260831005521 74 170 1.0 5.0 0.00 0.00 0.00 47 1007.5
20260831005021 74 171 3.0 5.0 0.00 0.00 0.00 47 1007.5
20260831004521 74 360 2.0 4.0 0.00 0.00 0.00 47 1007.6
20260831004022 74 360 2.0 4.0 0.00 0.00 0.00 48 1007.5
20260831003520 74 360 1.0 4.0 0.00 0.00 0.00 47 1007.3
20260831003020 75 360 1.0 4.0 0.00 0.00 0.00 45 1007.3
20260831002519 76 360 1.0 6.0 0.00 0.00 0.00 44 1007.4
20260831002022 76 360 3.0 6.0 0.00 0.00 0.00 43 1007.4
20260831001519 77 360 3.0 6.0 0.00 0.00 0.00 42 1007.5
20260831001022 77 32 3.0 5.0 0.00 0.00 0.00 41 1007.5
20260831000519 77 350 0.0 4.0 0.00 0.00 0.00 41 1007.5
20260831000024 77 360 1.0 5.0 0.00 0.00 0.00 42 1007.6
20260830235519 77 360 2.0 4.0 0.00 0.00 0.00 41 1007.6
20260830235021 78 360 0.0 6.0 0.00 0.00 0.00 42 1007.6
20260830234532 79 32 1.0 6.0 0.00 0.00 0.00 41 1007.6
20260830234023 79 309 1.0 7.0 0.00 0.00 0.00 42 1007.6
20260830233518 78 137 3.0 7.0 0.00 0.00 0.00 42 1007.4
20260830233018 78 80 4.0 7.0 0.00 0.00 0.00 41 1007.4
20260830232518 77 82 4.0 7.0 0.00 0.00 0.00 41 1007.4
20260830232022 77 113 3.0 6.0 0.00 0.00 0.00 43 1007.4
20260830231518 76 86 2.0 6.0 0.00 0.00 0.00 44 1007.3
20260830231017 76 99 2.0 7.0 0.00 0.00 0.00 44 1007.4
20260830230517 76 144 3.0 7.0 0.00 0.00 0.00 44 1007.5
20260830230024 75 119 2.0 6.0 0.00 0.00 0.00 44 1007.4
20260830225517 75 115 2.0 6.0 0.00 0.00 0.00 46 1007.6
20260830225016 75 136 2.0 7.0 0.00 0.00 0.00 46 1007.6
20260830224516 75 146 2.0 9.0 0.00 0.00 0.00 49 1007.7
20260830224016 74 146 4.0 8.0 0.00 0.00 0.00 51 1007.8
20260830223515 74 85 5.0 6.0 0.00 0.00 0.00 51 1007.7
20260830223015 73 138 2.0 7.0 0.00 0.00 0.00 53 1007.8
20260830222514 73 141 3.0 6.0 0.00 0.00 0.00 55 1007.7
20260830222017 73 123 3.0 8.0 0.00 0.00 0.00 54 1007.7
20260830221525 72 360 3.0 8.0 0.00 0.00 0.00 55 1008.0
20260830221014 73 140 1.0 6.0 0.00 0.00 0.00 55 1007.9
20260830220514 72 128 3.0 6.0 0.00 0.00 0.00 55 1007.9
20260830220014 72 40 3.0 6.0 0.00 0.00 0.00 55 1008.1
20260830215514 71 121 0.0 3.0 0.00 0.00 0.00 55 1008.3
20260830215014 71 116 0.0 2.0 0.00 0.00 0.00 59 1008.4
20260830214513 71 105 0.0 3.0 0.00 0.00 0.00 58 1008.5
20260830214013 71 128 1.0 3.0 0.00 0.00 0.00 57 1008.7
20260830213512 71 114 0.0 2.0 0.00 0.00 0.00 58 1008.8
20260830213019 70 101 0.0 4.0 0.00 0.00 0.00 60 1008.9
20260830212512 70 89 1.0 4.0 0.00 0.00 0.00 59 1009.0
20260830212012 69 204 1.0 5.0 0.00 0.00 0.00 61 1009.0
20260830211512 69 208 2.0 6.0 0.00 0.00 0.00 63 1008.9
20260830211013 68 215 2.0 6.0 0.00 0.00 0.00 64 1009.0
20260830210512 68 172 1.0 4.0 0.00 0.00 0.00 67 1008.8
20260830210011 68 211 1.0 4.0 0.00 0.00 0.00 68 1009.0
20260830205512 68 103 1.0 8.0 0.00 0.00 0.00 62 1008.8
20260830205010 68 243 1.0 16.0 0.00 0.00 0.00 62 1009.0
20260830204517 69 181 6.0 16.0 0.00 0.00 0.00 63 1009.2
20260830204010 72 198 5.0 9.0 0.00 0.00 0.00 64 1009.3
20260830203509 73 138 3.0 11.0 0.00 0.00 0.00 61 1008.9
20260830203007 73 24 3.0 11.0 0.00 0.00 0.00 57 1008.3
20260830202506 73 22 2.0 5.0 0.00 0.00 0.00 57 1007.7
20260830202005 73 19 2.0 6.0 0.00 0.00 0.00 57 1007.6
20260830201504 73 19 2.0 6.0 0.00 0.00 0.00 57 1007.5
20260830201007 74 22 1.0 4.0 0.00 0.00 0.00 58 1007.2
20260830200502 74 11 2.0 4.0 0.00 0.00 0.00 54 1006.8
20260830200002 74 28 0.0 6.0 0.00 0.00 0.00 53 1006.7
20260830195502 74 26 2.0 8.0 0.00 0.00 0.00 52 1006.9
20260830195002 73 22 3.0 9.0 0.00 0.00 0.00 56 1006.9
20260830194503 73 27 2.0 9.0 0.00 0.00 0.00 56 1006.9
20260830194003 75 30 3.0 10.0 0.00 0.00 0.00 52 1007.0
20260830193501 77 29 4.0 12.0 0.00 0.00 0.00 47 1006.9
20260830193110 80 30 4.0 12.0 0.00 0.00 0.00 42 1006.7
20260830192600 82 23 6.0 12.0 0.00 0.00 0.00 38 1006.5
20260830192103 82 360 1.0 5.0 0.00 0.00 0.00 37 1005.9
20260830191607 82 15 3.0 6.0 0.00 0.00 0.00 37 1005.5
20260830191059 82 39 3.0 6.0 0.00 0.00 0.00 37 1005.3
20260830190601 82 22 3.0 6.0 0.00 0.00 0.00 40 1005.1
20260830190100 82 350 2.0 6.0 0.00 0.00 0.00 39 1005.1
20260830185600 82 46 3.0 6.0 0.00 0.00 0.00 39 1005.0
20260830185059 82 22 3.0 6.0 0.00 0.00 0.00 38 1005.1
20260830184559 82 17 2.0 5.0 0.00 0.00 0.00 35 1005.1
20260830184059 82 27 2.0 4.0 0.00 0.00 0.00 35 1005.2
20260830183558 82 15 2.0 4.0 0.00 0.00 0.00 37 1005.4
20260830183058 81 17 1.0 5.0 0.00 0.00 0.00 36 1005.4
20260830182558 81 32 2.0 5.0 0.00 0.00 0.00 38 1005.4
20260830182058 81 54 1.0 4.0 0.00 0.00 0.00 34 1005.5
20260830181600 81 226 1.0 2.0 0.00 0.00 0.00 35 1005.5
20260830181059 82 229 0.0 5.0 0.00 0.00 0.00 34 1005.5
20260830180558 82 213 1.0 5.0 0.00 0.00 0.00 36 1005.5
20260830180100 83 360 1.0 3.0 0.00 0.00 0.00 36 1005.5
20260830175556 82 236 1.0 3.0 0.00 0.00 0.00 36 1005.7
20260830175056 82 265 1.0 3.0 0.00 0.00 0.00 37 1005.8
20260830174600 81 242 1.0 5.0 0.00 0.00 0.00 39 1005.8
20260830174055 81 37 3.0 5.0 0.00 0.00 0.00 38 1005.8
20260830173554 82 34 1.0 3.0 0.00 0.00 0.00 36 1005.9
20260830173105 82 240 0.0 3.0 0.00 0.00 0.00 38 1006.0
20260830172553 82 248 1.0 5.0 0.00 0.00 0.00 37 1006.0
20260830172054 82 360 1.0 7.0 0.00 0.00 0.00 36 1006.0
20260830171551 81 50 2.0 7.0 0.00 0.00 0.00 40 1006.0
20260830171051 80 15 1.0 7.0 0.00 0.00 0.00 39 1006.1
20260830170549 80 28 3.0 7.0 0.00 0.00 0.00 41 1006.2
20260830170050 80 25 2.0 5.0 0.00 0.00 0.00 42 1006.1
20260830165550 79 53 1.0 7.0 0.00 0.00 0.00 44 1006.2
20260830165046 79 246 2.0 7.0 0.00 0.00 0.00 43 1006.3
20260830164557 78 87 1.0 8.0 0.00 0.00 0.00 49 1006.3
20260830164145 77 315 2.0 8.0 0.00 0.00 0.00 45 1006.4
20260830163544 78 217 1.0 5.0 0.00 0.00 0.00 45 1006.4
20260830163059 78 9 2.0 4.0 0.00 0.00 0.00 45 1006.4
20260830162543 78 298 1.0 4.0 0.00 0.00 0.00 46 1006.5
20260830162043 78 304 1.0 4.0 0.00 0.00 0.00 46 1006.5
20260830161542 78 25 1.0 4.0 0.00 0.00 0.00 49 1006.5
20260830161041 77 278 0.0 5.0 0.00 0.00 0.00 47 1006.5
20260830160539 76 212 1.0 5.0 0.00 0.00 0.00 49 1006.5
20260830160039 75 205 1.0 4.0 0.00 0.00 0.00 50 1006.6
20260830155538 75 251 0.0 3.0 0.00 0.00 0.00 51 1006.6
20260830155037 74 205 1.0 3.0 0.00 0.00 0.00 52 1006.6
20260830154536 73 229 0.0 3.0 0.00 0.00 0.00 53 1006.6
20260830154034 72 172 0.0 2.0 0.00 0.00 0.00 56 1006.7
20260830153531 71 228 0.0 1.0 0.00 0.00 0.00 56 1006.7
20260830153030 70 229 0.0 1.0 0.00 0.00 0.00 58 1006.9
20260830152529 70 228 0.0 2.0 0.00 0.00 0.00 59 1007.0
20260830152028 69 227 0.0 2.0 0.00 0.00 0.00 62 1006.9
20260830151527 69 206 0.0 4.0 0.00 0.00 0.00 62 1007.0
20260830151027 68 250 0.0 4.0 0.00 0.00 0.00 64 1006.9
20260830150527 67 257 1.0 4.0 0.00 0.00 0.00 64 1006.8
20260830150035 67 242 1.0 2.0 0.00 0.00 0.00 67 1006.7
20260830145525 67 243 0.0 2.0 0.00 0.00 0.00 66 1006.5
20260830145024 67 9 1.0 2.0 0.00 0.00 0.00 66 1006.2
20260830144524 67 286 0.0 3.0 0.00 0.00 0.00 67 1006.4
20260830144028 67 25 0.0 3.0 0.00 0.00 0.00 63 1006.4
20260830143526 66 350 0.0 2.0 0.00 0.00 0.00 67 1006.4
20260830143024 67 166 0.0 2.0 0.00 0.00 0.00 65 1006.6
20260830142522 67 200 0.0 2.0 0.00 0.00 0.00 64 1006.4
20260830142022 66 215 0.0 2.0 0.00 0.00 0.00 66 1006.3
20260830141522 65 238 0.0 2.0 0.00 0.00 0.00 67 1006.4
20260830141021 66 169 0.0 2.0 0.00 0.00 0.00 65 1006.4
20260830140521 66 89 0.0 2.0 0.00 0.00 0.00 60 1006.3
20260830140021 66 109 0.0 2.0 0.00 0.00 0.00 59 1006.3
20260830135523 66 123 0.0 1.0 0.00 0.00 0.00 60 1006.2
20260830135024 65 239 0.0 1.0 0.00 0.00 0.00 63 1006.3
20260830134525 64 219 0.0 2.0 0.00 0.00 0.00 62 1006.3
20260830134020 64 221 0.0 2.0 0.00 0.00 0.00 63 1006.2
20260830133519 63 360 0.0 1.0 0.00 0.00 0.00 64 1006.1
20260830133023 62 360 0.0 2.0 0.00 0.00 0.00 65 1006.0
20260830132518 63 360 1.0 2.0 0.00 0.00 0.00 64 1006.0
20260830132019 63 360 0.0 2.0 0.00 0.00 0.00 62 1006.0
20260830131532 63 360 0.0 1.0 0.00 0.00 0.00 63 1006.0
20260830131019 63 360 0.0 2.0 0.00 0.00 0.00 62 1006.2
20260830130520 62 360 0.0 1.0 0.00 0.00 0.00 63 1006.1
20260830130017 62 360 0.0 1.0 0.00 0.00 0.00 63 1006.1
20260830125518 62 360 0.0 2.0 0.00 0.00 0.00 63 1006.0
20260830125018 62 360 0.0 2.0 0.00 0.00 0.00 64 1006.0
20260830124516 62 360 0.0 1.0 0.00 0.00 0.00 65 1005.9
20260830124016 62 360 0.0 1.0 0.00 0.00 0.00 65 1005.8
20260830123517 62 360 0.0 1.0 0.00 0.00 0.00 66 1005.7
20260830123015 61 360 0.0 1.0 0.00 0.00 0.00 68 1005.7
20260830122515 61 360 0.0 1.0 0.00 0.00 0.00 68 1005.6
20260830122014 61 360 0.0 0.0 0.00 0.00 0.00 70 1005.6
20260830121515 61 360 0.0 0.0 0.00 0.00 0.00 71 1005.5
20260830121014 61 360 0.0 2.0 0.00 0.00 0.00 71 1005.4
20260830120514 62 360 0.0 2.0 0.00 0.00 0.00 69 1005.3
20260830120014 61 360 0.0 2.0 0.00 0.00 0.00 71 1005.4
20260830115514 61 360 0.0 2.0 0.00 0.00 0.00 72 1005.2
20260830115018 61 360 0.0 0.0 0.00 0.00 0.00 72 1005.3
20260830114514 61 360 0.0 0.0 0.00 0.00 0.00 72 1005.3
20260830114013 61 360 0.0 1.0 0.00 0.00 0.00 72 1005.0
20260830113511 62 360 0.0 2.0 0.00 0.00 0.00 68 1005.0
20260830113012 62 360 0.0 2.0 0.00 0.00 0.00 68 1005.1
20260830112511 62 360 0.0 2.0 0.00 0.00 0.00 69 1005.1
20260830112011 61 360 0.0 2.0 0.00 0.00 0.00 70 1005.0
20260830111510 62 360 0.0 2.0 0.00 0.00 0.00 69 1004.8
20260830111009 62 360 0.0 3.0 0.00 0.00 0.00 68 1004.8
20260830110507 63 311 0.0 3.0 0.00 0.00 0.00 68 1004.8
20260830110006 63 313 0.0 1.0 0.00 0.00 0.00 66 1004.7
20260830105505 64 269 0.0 1.0 0.00 0.00 0.00 63 1004.6
20260830105005 64 322 0.0 2.0 0.00 0.00 0.00 64 1004.6
20260830104505 64 323 0.0 2.0 0.00 0.00 0.00 65 1004.6
20260830104004 65 314 0.0 1.0 0.00 0.00 0.00 61 1004.8
20260830103503 66 330 0.0 1.0 0.00 0.00 0.00 55 1004.7
20260830103007 67 360 0.0 1.0 0.00 0.00 0.00 52 1004.7
20260830102504 68 360 0.0 2.0 0.00 0.00 0.00 51 1004.7
20260830102002 68 360 0.0 2.0 0.00 0.00 0.00 50 1004.9
20260830101502 68 360 0.0 2.0 0.00 0.00 0.00 50 1004.8
20260830101004 68 360 0.0 2.0 0.00 0.00 0.00 51 1004.7
20260830100503 68 360 0.0 2.0 0.00 0.00 0.00 51 1004.6
20260830100004 69 360 0.0 3.0 0.00 0.00 0.00 50 1004.5
20260830095502 69 360 0.0 4.0 0.00 0.00 0.00 50 1004.4
20260830095001 68 360 0.0 4.0 0.00 0.00 0.00 52 1004.5
20260830094600 68 360 0.0 4.0 0.00 0.00 0.00 53 1004.5
20260830094058 67 360 0.0 2.0 0.00 0.00 0.00 54 1004.5
20260830093558 67 360 0.0 3.0 0.00 0.00 0.00 55 1004.6
20260830093102 67 360 1.0 4.0 0.00 0.00 0.00 54 1004.8
20260830092558 67 360 0.0 3.0 0.00 0.00 0.00 54 1004.9
20260830092058 67 360 0.0 2.0 0.00 0.00 0.00 54 1004.7
20260830091602 67 360 0.0 3.0 0.00 0.00 0.00 54 1004.6
20260830091056 67 360 0.0 3.0 0.00 0.00 0.00 55 1004.6
20260830090556 66 360 0.0 2.0 0.00 0.00 0.00 56 1004.6
20260830090054 66 360 0.0 3.0 0.00 0.00 0.00 56 1004.6
20260830085553 66 253 0.0 3.0 0.00 0.00 0.00 57 1004.6
20260830085054 66 195 0.0 2.0 0.00 0.00 0.00 59 1004.6
20260830084551 65 248 0.0 2.0 0.00 0.00 0.00 60 1004.7
20260830084052 65 188 0.0 2.0 0.00 0.00 0.00 62 1004.7
20260830083551 65 205 0.0 2.0 0.00 0.00 0.00 63 1004.7
20260830083050 65 227 0.0 2.0 0.00 0.00 0.00 64 1004.8
20260830082549 64 360 0.0 2.0 0.00 0.00 0.00 64 1004.8
20260830082050 64 360 0.0 1.0 0.00 0.00 0.00 64 1004.8
20260830081551 64 360 0.0 1.0 0.00 0.00 0.00 64 1004.8
20260830081048 64 360 0.0 1.0 0.00 0.00 0.00 63 1004.7
20260830080547 64 360 0.0 2.0 0.00 0.00 0.00 62 1004.8
20260830080051 64 360 0.0 3.0 0.00 0.00 0.00 61 1004.9
20260830075547 64 360 0.0 3.0 0.00 0.00 0.00 61 1005.0
20260830075046 65 360 0.0 4.0 0.00 0.00 0.00 60 1004.9
20260830074545 65 360 2.0 4.0 0.00 0.00 0.00 60 1004.8
20260830074045 65 116 1.0 3.0 0.00 0.00 0.00 60 1004.9
20260830073544 65 360 1.0 3.0 0.00 0.00 0.00 60 1005.0
20260830073048 64 360 0.0 2.0 0.00 0.00 0.00 61 1005.1
20260830072544 64 360 0.0 1.0 0.00 0.00 0.00 61 1005.0
20260830072044 64 360 0.0 2.0 0.00 0.00 0.00 62 1005.1
20260830071543 65 360 0.0 2.0 0.00 0.00 0.00 61 1005.2
20260830071045 65 360 1.0 6.0 0.00 0.00 0.00 60 1005.1
20260830070542 65 128 1.0 6.0 0.00 0.00 0.00 60 1005.2
20260830070042 65 113 1.0 4.0 0.00 0.00 0.00 60 1005.0
20260830065541 65 128 1.0 5.0 0.00 0.00 0.00 60 1005.0
20260830065041 65 360 2.0 5.0 0.00 0.00 0.00 60 1005.1
20260830064540 65 360 1.0 4.0 0.00 0.00 0.00 60 1005.3
20260830064039 65 360 0.0 4.0 0.00 0.00 0.00 60 1005.3
20260830063538 65 360 0.0 3.0 0.00 0.00 0.00 59 1005.3
20260830063036 65 360 1.0 3.0 0.00 0.00 0.00 57 1005.4
20260830062536 65 360 0.0 4.0 0.00 0.00 0.00 56 1005.6
20260830062036 65 360 1.0 4.0 0.00 0.00 0.00 55 1005.8
20260830061534 65 360 2.0 3.0 0.00 0.00 0.00 56 1005.7
20260830061034 65 360 1.0 2.0 0.00 0.00 0.00 56 1005.6
20260830060534 65 360 0.0 3.0 0.00 0.00 0.00 57 1005.6
20260830060032 65 360 0.0 3.0 0.00 0.00 0.00 58 1005.7
20260830055532 64 360 0.0 2.0 0.00 0.00 0.00 59 1005.8
20260830055032 64 360 0.0 1.0 0.00 0.00 0.00 59 1005.9
20260830054531 65 360 0.0 2.0 0.00 0.00 0.00 59 1005.8
20260830054029 65 77 0.0 2.0 0.00 0.00 0.00 57 1005.8
20260830053529 66 77 0.0 3.0 0.00 0.00 0.00 56 1005.7
20260830053029 66 69 1.0 3.0 0.00 0.00 0.00 57 1005.7
20260830052529 66 165 0.0 1.0 0.00 0.00 0.00 57 1005.6
20260830052029 66 165 0.0 1.0 0.00 0.00 0.00 57 1005.5
20260830051531 66 165 0.0 1.0 0.00 0.00 0.00 57 1005.5
20260830051032 67 103 0.0 5.0 0.00 0.00 0.00 56 1005.6
20260830050531 67 132 1.0 5.0 0.00 0.00 0.00 56 1005.7
20260830050029 66 99 2.0 7.0 0.00 0.00 0.00 56 1005.7
20260830045531 67 100 3.0 7.0 0.00 0.00 0.00 56 1005.7
20260830045028 67 113 2.0 6.0 0.00 0.00 0.00 56 1005.8
20260830044528 67 119 2.0 6.0 0.00 0.00 0.00 56 1005.8
20260830044029 67 94 4.0 7.0 0.00 0.00 0.00 55 1005.9
20260830043530 67 90 1.0 4.0 0.00 0.00 0.00 55 1006.0
20260830043027 67 109 1.0 4.0 0.00 0.00 0.00 56 1006.0
20260830042527 67 95 0.0 2.0 0.00 0.00 0.00 56 1005.9
20260830042028 67 86 1.0 3.0 0.00 0.00 0.00 55 1006.0
20260830041528 67 130 1.0 7.0 0.00 0.00 0.00 55 1006.0